Weather History for Springfield, CO

Change the Weather History Date:

Wednesday, May 8, 2013

  Actual Average Record
Temperature  
Mean Temperature 60 °F -  
Max Temperature 75 °F 73 °F 92 °F (2011)
Min Temperature 44 °F 44 °F 37 °F (1999)
Degree Days  
Heating Degree Days 5 7  
Month to date heating degree days 129 65  
Since 1 July heating degree days 5142 5164  
Cooling Degree Days 0 1  
Month to date cooling degree days 0 6  
Year to date cooling degree days 3 10  
Growing Degree Days 10 (Base 50)    
Moisture  
Dew Point 42 °F    
Average Humidity 62    
Maximum Humidity 89    
Minimum Humidity 35    
Precipitation  
Precipitation 0.15 in 0.05 in 0.40 in (2000)
Month to date precipitation 0.30 0.48  
Year to date precipitation 0.99 3.69  
Sea Level Pressure  
Sea Level Pressure 29.80 in    
Wind  
Wind Speed 14 mph (North)    
Max Wind Speed 35 mph    
Max Gust Speed 40 mph    
T = Trace of Precipitation, MM = Missing Value Source: NWS Daily Summary

Daily Weather History Graph

Daily Weather History Graph

Search for Another Location

Airport:

Trip Planner

Search our weather history database for the weather conditions in past years. The results will help you decide how hot, cold, wet, or windy it might be!

Date:

Astronomy

May. 08, 2013 Rise Set
Actual Time 5:47 AM MDT 7:46 PM MDT
Civil Twilight 5:19 AM MDT 8:15 PM MDT
Nautical Twilight 4:44 AM MDT 8:50 PM MDT
Astronomical Twilight 4:07 AM MDT 9:27 PM MDT
Moon 4:55 AM MDT (5/8) 6:47 PM MDT (5/8)
Length of Visible Light 14h 55m
Length of Day
13h 58m
Waning Crescent, 2% of the Moon is Illuminated
May 8
Waning Crescent
May 9
New
May 17
First Quarter
May 24
Full
May 31
Last Quarter

Hourly Weather History & Observations

Time (MDT) Temp. Windchill Dew Point Humidity Pressure Visibility Wind Dir Wind Speed Gust Speed Precip Events Conditions
12:56 AM 55.9 °F - 34.0 °F 44% 29.73 in - East 3.5 mph - N/A   Unknown
1:56 AM 53.1 °F - 33.1 °F 47% 29.72 in - North 3.5 mph - N/A   Unknown
2:56 AM 48.9 °F - 32.0 °F 52% 29.73 in - NNW 8.1 mph - N/A   Unknown
3:56 AM 46.9 °F - 32.0 °F 56% 29.74 in - North 11.5 mph - N/A   Unknown
4:56 AM 48.9 °F - 37.9 °F 66% 29.75 in - North 15.0 mph - N/A   Unknown
5:56 AM 48.0 °F - 39.0 °F 71% 29.75 in - North 13.8 mph - N/A   Unknown
6:56 AM 54.0 °F - 45.0 °F 72% 29.77 in - NNE 15.0 mph - N/A   Unknown
7:56 AM 59.0 °F - 45.0 °F 60% 29.79 in - North 17.3 mph - N/A   Unknown
8:56 AM 62.1 °F - 46.0 °F 56% 29.78 in - NNE 17.3 mph - N/A   Unknown
9:56 AM 64.9 °F - 45.0 °F 48% 29.80 in - NNE 16.1 mph 21.9 mph N/A   Unknown
10:56 AM 68.0 °F - 46.0 °F 45% 29.79 in - NNE 16.1 mph 25.3 mph N/A   Unknown
11:56 AM 71.1 °F - 45.0 °F 39% 29.77 in - NE 16.1 mph 20.7 mph N/A   Unknown
12:56 PM 73.9 °F - 44.1 °F 34% 29.75 in - ENE 12.7 mph 23.0 mph N/A   Unknown
1:56 PM 71.1 °F - 42.1 °F 35% 29.75 in - NNE 8.1 mph - N/A   Unknown
2:56 PM 61.0 °F - 42.1 °F 50% 29.81 in - West 13.8 mph 32.2 mph 0.01 in   Unknown
3:04 PM 57.2 °F - 42.8 °F 59% 29.94 in - WSW 26.5 mph 35.7 mph N/A   Unknown
3:15 PM 53.6 °F - 42.8 °F 67% 29.96 in - West 11.5 mph 29.9 mph 0.06 in   Unknown
3:56 PM 57.0 °F - 48.0 °F 72% 29.83 in - Calm Calm - 0.13 in   Unknown
4:56 PM 55.9 °F - 46.0 °F 69% 29.84 in - NNE 19.6 mph - N/A   Unknown
5:56 PM 54.0 °F - 44.1 °F 69% 29.80 in - NNE 29.9 mph - 0.01 in   Unknown
6:56 PM 53.1 °F - 44.1 °F 71% 29.80 in - NNE 23.0 mph 27.6 mph N/A   Unknown
7:56 PM 50.0 °F - 41.0 °F 71% 29.83 in - North 16.1 mph - N/A   Unknown
8:56 PM 53.1 °F - 41.0 °F 64% 29.82 in - NNW 15.0 mph - N/A   Unknown
9:56 PM 51.1 °F - 43.0 °F 74% 29.87 in - North 11.5 mph - N/A   Unknown
10:56 PM 46.9 °F - 43.0 °F 86% 29.88 in - North 11.5 mph - N/A   Unknown
11:56 PM 45.0 °F 39.3 °F 41.0 °F 86% 29.89 in - NNW 11.5 mph - N/A   Unknown